STARLINK-32339, 61640

Orbit data source: Space-Track

STARLINK-32339, 61640 is a payload satellite owned by SpaceX/Seattle (US) in LEO that was launched on Wed, 23 Oct 2024 UTC via an FALCON 9 launch vehicle from the Air Force Eastern Test Range (AFETR). Payload-class satellites include a variety of spacecraft equipped with specific instruments for various scientific and technological missions. These include communications satellites like Starlink; space stations such as the ISS; scientific satellites like the Hubble; Earth observation satellites from companies like Planet Labs, Umbra, and HawkEye 360; GPS; miniature CubeSats for education and research; and military/defense satellites.

Loading next visibility...
Identifier
61640, 2024-191V
Orbit
LEO
Country
Flag of USUS
Related business
Manufacturer
SpaceX/Seattle
Mission
Operational Commercial Communications
Bus & Motor
STARLINK V2M, Unknown motor
Mass
730 kg wet, ~700 kg dry
Launch date (UTC)
2024-10-23 (2 years ago)
Launch vehicle
FALCON 9
Launch site
Air Force Eastern Test Range (AFETR)
Object type
Payload
Rocket body
Debris
Shape & HBR
Box + 2 Pan, 17.7 m
Radar Cross Section
33.884 m², Large (>1 m²)

Expand to show TLE details & history
Last TLE update: 12 hours ago

TLE from 12 hours ago
0 STARLINK-32339
1 61640U 24191V   26122.71876159 -.00001932  00000-0 -60734-4 0  9992
2 61640  42.9984 209.0110 0000837 269.2859  90.7897 15.27570171 85792
Epoch: 2026-05-02T17:15Z
TLE epoch observation values (Epoch: 2026-05-02T17:15:01.001Z)
Latitude
0.00001°
Longitude
89.6242°
Altitude
482.862 km
Speed
7.626 km/s
True Right ascension
13h 56m 02s
True Declination
0° 00' 00"
Sunlit
Object was in full shadow at epoch
Visualization orbit readout
Latitude
Unknown
Longitude
Unknown
Altitude
Unknown
Speed
Unknown
Apparent Right ascension
Unknown
Apparent Declination
Unknown
Sunlit
N/A
Visualization observer readout
Local Sidereal Time
12:36:55
Azimuth
Unknown
Elevation
Unknown
Doppler factor
Unknown
Orbital elements
Apogee altitude
485.598 km
Perigee altitude
484.45 km
Semi-major axis
6,863.161 km
Eccentricity
0.00008
Inclination
42.9984°
RAAN
209.011°
Arg. of periapsis
269.2859°
True anomaly
90.79929°
Mean anomaly
90.7897°
Eccentric anomaly
90.7945°
Mean motion
3.81731 °/min
Orbital period
94.31 mins
BSTAR
-0.000060734
Loading maneuver chart data...
Computing Atmospheric mass density...
Loading historical data...
Loading historical data...
Loading historical data...
Loading historical data...
Loading historical data...
Loading historical data...
Loading historical data...

Documentation

Showing up to 5 results
|